This is the latest recevied weather packets stored in our database for station/object KQ7A. If no packets are shown the sender has not sent any weather packets the latest 10 day(s).
| Time | Temp. | Humidity | Pressure | Rain* | Wind** | Luminosity | Snow |
|---|---|---|---|---|---|---|---|
| 1777561269 | 7.78° C | 63% | 1020.8 hPa | 0 mm | - | 219 W/m² | - |
| 1777559145 | 7.22° C | 65% | 1020.7 hPa | 0 mm | - | 85 W/m² | - |
| 1777558237 | 5.56° C | 66% | 1020.5 hPa | 0 mm | - | 46 W/m² | - |
| 1777557932 | 4.44° C | 70% | 1020.4 hPa | 0 mm | - | 42 W/m² | - |
| 1777557630 | 3.89° C | 73% | 1020.4 hPa | 0 mm | - | 38 W/m² | - |
| 1777557326 | 2.78° C | 77% | 1020.4 hPa | 0 mm | - | 30 W/m² | - |
| 1777556718 | 2.78° C | 77% | 1020 hPa | 0 mm | - | 24 W/m² | - |
| 1777556115 | 3.33° C | 69% | 1020.1 hPa | 0 mm | - | 19 W/m² | - |
| 1777555506 | 2.78° C | 70% | 1019.4 hPa | 0 mm | - | 14 W/m² | - |
| 1777554900 | 2.78° C | 70% | 1020 hPa | 0 mm | - | 8 W/m² | - |
| 1777554596 | 2.22° C | 70% | 1019.8 hPa | 0 mm | - | 5 W/m² | - |
| 1777554292 | 2.22° C | 72% | 1019.9 hPa | 0 mm | - | 3 W/m² | - |
| 1777552769 | 2.22° C | 72% | 1019.7 hPa | 0 mm | - | 0 W/m² | - |
| 1777552465 | 1.67° C | 72% | 1019.8 hPa | 0 mm | - | 0 W/m² | - |
| 1777552161 | 1.67° C | 73% | 1019.9 hPa | 0 mm | - | 0 W/m² | - |
| 1777550038 | 2.78° C | 69% | 1019.8 hPa | 0 mm | - | 0 W/m² | - |
| 1777549736 | 3.33° C | 70% | 1019.9 hPa | 0 mm | - | 0 W/m² | - |
| 1777548829 | 2.78° C | 67% | 1019.8 hPa | 0 mm | - | 0 W/m² | - |
| 1777548223 | 3.89° C | 66% | 1019.7 hPa | 0 mm | - | 0 W/m² | - |
| 1777547920 | 3.33° C | 70% | 1019.7 hPa | 0 mm | - | 0 W/m² | - |
| 1777547616 | 3.33° C | 64% | 1019.8 hPa | 0 mm | - | 0 W/m² | - |
| 1777547010 | 2.78° C | 67% | 1019.6 hPa | 0 mm | - | 0 W/m² | - |
| 1777545190 | 2.78° C | 76% | 1019.4 hPa | 0 mm | - | 0 W/m² | - |
| 1777544889 | 2.78° C | 75% | 1019.6 hPa | 0 mm | - | 0 W/m² | - |
| 1777544584 | 2.78° C | 75% | 1019.2 hPa | 0 mm | - | 0 W/m² | - |
* Rain latest hour (hover to see other rain measurements)
** Current wind speed in m/s (hover to see current wind gust speed)